This demonstration page uses our WeatherBlox Daily Observations layout. Learn more.

39.92423, -83.80882

Hourly Observations for September 24, 2016

Temp ( °F °C ) Dew Point ( °F °C ) Humidity (%) Winds ( mph kmh ) Pressure ( in mb ) Visibility ( mi km ) Precip ( " mm )
12:56 am 00:56 Clear 68 20 64 17.8 87 87 ENE 7 11 30.07 1018 10 16.0934 0 0
1:56 am 01:56 Clear 68 20 65 18.3 90 90 NE 6 9 30.08 1019 9 14.48406 0 0
2:54 am 02:54 Partly Cloudy with Mist and Fog 68 20 66 19 94 94 NE 10 17 30.06 1018 5 8.0467 0 0
2:56 am 02:56 Partly Cloudy with Mist and Fog 68 20 66 18.9 93 93 NE 12 19 30.08 1019 5 8.0467 0 0
3:03 am 03:03 Mostly Cloudy with Mist and Fog 68 20 66 19 94 94 NE 12 19 30.09 1019 4 6.43736 0 0
3:56 am 03:56 Cloudy with Mist and Fog 68 20 66 18.9 93 93 NE 7 11 30.1 1019 4 6.43736 0 0
4:56 am 04:56 Cloudy with Mist and Fog 68 20 65 18.3 90 90 NE 9 15 30.1 1019 5 8.0467 0 0
5:56 am 05:56 Cloudy with Mist and Fog 67 19.4 65 18.3 93 93 ENE 8 13 30.11 1020 5 8.0467 0 0
6:56 am 06:56 Cloudy with Mist and Fog 67 19.4 65 18.3 93 93 NE 9 15 30.12 1020 6 9.65604 0 0
7:56 am 07:56 Cloudy with Mist and Fog 67 19.4 65 18.3 93 93 NNE 7 11 30.15 1021 4 6.43736 0 0
8:56 am 08:56 Cloudy with Mist and Fog 67 19.4 65 18.3 93 93 ENE 12 19 30.16 1022 4 6.43736 0 0
9:49 am 09:49 Cloudy with Mist and Fog 70 21 64 18 83 83 NNE 7 11 30.15 1021 5 8.0467 0 0
9:56 am 09:56 Cloudy with Mist and Fog 69 20.6 66 18.9 90 90 NNE 6 9 30.17 1022 5 8.0467 0 0
10:21 am 10:21 Cloudy 70 21 66 19 88 88 NE 10 17 30.15 1021 7 11.26538 0 0
10:56 am 10:56 Cloudy 71 21.7 65 18.3 81 81 NE 8 13 30.18 1022 9 14.48406 0 0
11:32 am 11:32 Cloudy 70 21 64 18 83 83 NE 8 13 30.18 1022 9 14.48406 0 0
11:56 am 11:56 Cloudy 74 23.3 66 18.9 76 76 VRB 6 9 30.19 1022 9 14.48406 0 0
12:56 pm 12:56 Cloudy 74 23.3 66 18.9 76 76 NNE 8 13 30.18 1022 10 16.0934 0 0
1:56 pm 13:56 Cloudy 75 23.9 66 18.9 74 74 N 7 11 30.17 1022 10 16.0934 0 0
3:25 pm 15:25 Partly Cloudy 77 25 64 18 65 65 VRB 3 6 30.12 1020 10 16.0934 0 0
3:56 pm 15:56 Partly Cloudy 78 25.6 65 18.3 64 64 N 7 11 30.13 1020 10 16.0934 0 0
4:56 pm 16:56 Cloudy 76 24.4 64 17.8 67 67 NE 8 13 30.13 1020 10 16.0934 0 0
5:56 pm 17:56 Sunny 77 25 64 17.8 64 64 NE 7 11 30.13 1020 10 16.0934 0 0
6:56 pm 18:56 Sunny 75 23.9 64 17.8 69 69 NNE 6 9 30.12 1020 10 16.0934 0 0
7:56 pm 19:56 Clear 69 20.6 62 16.7 78 78 ENE 5 7 30.13 1020 10 16.0934 0 0
8:56 pm 20:56 Clear 67 19.4 60 15.6 79 79 NE 7 11 30.14 1021 10 16.0934 0 0
9:56 pm 21:56 Clear 67 19.4 59 15 76 76 ENE 9 15 30.14 1021 10 16.0934 0 0
10:56 pm 22:56 Clear 64 17.8 57 13.9 78 78 NE 8 13 30.15 1021 10 16.0934 0 0
11:56 pm 23:56 Clear 62 16.7 57 13.9 84 84 ENE 7 11 30.16 1021 10 16.0934 0 0

Powered by AerisWeather